Location: Poughquag
(41.6090°N, 73.6820°W)
Time: 02:53:41
(UTC-04:00)

Transit 4A - Pass Details

Date: 06 June 2020
Orbit: 866 x 978 km, 66.8° (Epoch: 06 July)

Event Time Altitude Azimuth Distance (km) Brightness Sun altitude
Rises 00:39:17 0° 199° (SSW) 3,433 - -25.6°
Reaches altitude 10° 00:41:45 10° 197° (SSW) 2,502 - -25.6°
Exits shadow 00:47:05 64° 139° (SE) 963 7.7 -25.7°
Maximum altitude 00:47:27 66° 116° (ESE) 952 7.7 -25.7°
Drops below altitude 10° 00:53:18 10° 35° (NE) 2,560 10.9 -25.7°
Sets 00:55:50 0° 33° (NNE) 3,519 11.8 -25.7°
